FW6272 Weather Reports


time (UTC)temp
C
wind
direction
speed
KPH
gust
KPH
rain 1hr
cm
rain 24hr
cm
rain mn
cm
humidity
%
barometer
mb
20260508044204 8 140 0.0 0.0 0.00 0.64 0.00 97 1010.1
20260508043703 8 140 0.0 0.0 0.00 0.64 0.00 97 1009.8
20260508043204 8 137 0.0 0.0 0.00 0.64 0.00 97 1009.9
20260508042703 8 136 0.0 0.0 0.00 0.64 0.00 97 1009.8
20260508042203 8 135 0.0 0.0 0.00 0.64 0.00 97 1009.7
20260508041703 8 136 0.0 0.0 0.00 0.64 0.00 97 1009.5
20260508041204 8 136 0.0 0.0 0.00 0.64 0.00 97 1009.5
20260508040703 8 141 0.0 0.0 0.00 0.64 0.00 97 1009.8
20260508040204 8 142 0.0 0.0 0.00 0.64 0.00 97 1009.6
20260508035203 8 142 0.0 0.0 0.00 0.64 0.64 97 1009.5
20260508034203 8 146 0.0 0.0 0.00 0.64 0.64 96 1009.8
20260508033703 8 146 0.0 0.0 0.00 0.64 0.64 96 1009.2
20260508033203 8 146 0.0 0.0 0.00 0.64 0.64 96 1009.5
20260508032703 8 146 0.0 0.0 0.00 0.64 0.64 96 1009.2
20260508032203 8 146 0.0 0.0 0.00 0.64 0.64 96 1009.5
20260508031703 8 146 0.0 0.0 0.00 0.64 0.64 96 1009.6
20260508031203 8 146 0.0 0.0 0.00 0.64 0.64 95 1009.7
20260508030703 9 147 0.0 0.0 0.00 0.64 0.64 95 1009.8
20260508030203 9 147 0.0 0.0 0.00 0.64 0.64 95 1009.8
20260508025703 9 147 0.0 0.0 0.00 0.64 0.64 94 1009.8
20260508025204 9 147 0.0 0.0 0.00 0.64 0.64 94 1009.5
20260508024703 9 121 0.0 0.0 0.00 0.66 0.64 94 1009.7
20260508024203 10 133 0.0 0.0 0.00 0.66 0.64 94 1009.5
20260508023703 10 133 0.0 0.0 0.00 0.69 0.64 94 1009.8
20260508023203 10 130 0.0 0.0 0.00 0.69 0.64 93 1009.5
20260508022204 10 133 0.0 0.0 0.00 0.74 0.64 93 1009.6
20260508021703 10 134 0.0 0.0 0.00 0.74 0.64 92 1009.8
20260508021203 10 134 0.0 0.0 0.00 0.74 0.64 92 1009.8
20260508020704 10 134 0.0 0.0 0.00 0.76 0.64 91 1009.8
20260508020203 11 134 0.0 0.0 0.00 0.76 0.64 91 1009.5
20260508015203 11 134 0.0 0.0 0.00 0.76 0.64 89 1009.8
20260508014703 11 133 0.0 0.0 0.00 0.76 0.64 88 1009.5
20260508014203 11 133 0.0 0.0 0.00 0.76 0.64 87 1009.7
20260508013703 11 130 0.0 0.0 0.00 0.76 0.64 86 1009.5
20260508013204 11 140 0.0 0.0 0.00 0.76 0.64 86 1009.5
20260508012703 12 151 0.0 0.0 0.00 0.76 0.64 83 1009.5
20260508011204 12 151 0.0 0.0 0.00 0.76 0.64 81 1009.2
20260508010704 12 176 0.0 0.0 0.00 0.76 0.64 79 1009.5
20260508010203 12 175 0.0 0.0 0.00 0.76 0.64 77 1009.4
20260508005703 12 168 0.0 0.0 0.00 0.76 0.64 76 1009.5
20260508005203 12 172 0.0 3.2 0.00 0.76 0.64 75 1009.5
20260508004703 12 161 0.0 3.2 0.00 0.76 0.64 73 1009.1
20260508004204 12 174 0.0 8.0 0.00 0.76 0.64 72 1009.1
20260508003703 12 168 0.0 3.2 0.00 0.76 0.64 71 1009.1
20260508003203 13 155 0.0 0.0 0.00 0.76 0.64 66 1009.1
20260508002703 13 170 1.6 3.2 0.00 0.76 0.64 65 1008.8
20260508002203 13 138 1.6 3.2 0.00 0.76 0.64 64 1008.8
20260508001203 13 113 0.0 0.0 0.00 0.76 0.64 62 1008.5
20260508000703 13 113 0.0 0.0 0.00 0.76 0.64 59 1008.2
20260508000204 13 113 0.0 0.0 0.00 0.76 0.64 59 1008.5
20260507235703 13 113 0.0 0.0 0.00 0.76 0.64 60 1008.5
20260507235204 13 113 0.0 0.0 0.00 0.76 0.64 57 1008.5
20260507234703 14 113 0.0 0.0 0.00 0.76 0.64 57 1008.5
20260507234204 14 113 0.0 0.0 0.00 0.76 0.64 59 1008.5
20260507233703 14 113 0.0 0.0 0.00 0.76 0.64 58 1008.4
20260507233203 15 113 0.0 0.0 0.00 0.76 0.64 57 1008.3
20260507232703 15 113 0.0 0.0 0.00 0.76 0.64 60 1008.4
20260507232204 15 113 0.0 0.0 0.00 0.76 0.64 60 1008.1
20260507231703 16 113 0.0 0.0 0.00 0.76 0.64 53 1008.1
20260507231203 16 113 0.0 0.0 0.00 0.76 0.64 52 1008.1
20260507230703 17 113 0.0 0.0 0.00 0.76 0.64 52 1008.1
20260507230203 17 100 0.0 0.0 0.00 0.76 0.64 47 1007.9
20260507225703 17 105 0.0 3.2 0.00 0.76 0.64 45 1008.1
20260507225203 17 100 0.0 0.0 0.00 0.76 0.64 47 1007.8
20260507224703 17 105 0.0 3.2 0.00 0.76 0.64 42 1008.0
20260507224204 17 190 0.0 8.0 0.00 0.76 0.64 40 1008.0
20260507223703 17 64 1.6 8.0 0.00 0.76 0.64 42 1008.1
20260507223203 18 86 0.0 8.0 0.00 0.76 0.64 45 1008.4
20260507222703 18 112 1.6 3.2 0.00 0.76 0.64 39 1008.1
20260507222203 18 144 1.6 8.0 0.00 0.76 0.64 40 1008.1
20260507220704 19 183 0.0 8.0 0.00 0.76 0.64 36 1007.8
20260507220204 20 215 3.2 8.0 0.00 0.76 0.64 36 1007.8
20260507215704 20 38 1.6 8.0 0.00 0.76 0.64 37 1008.1
20260507215203 19 96 0.0 3.2 0.00 0.76 0.64 38 1008.1
20260507214203 20 171 3.2 11.3 0.00 0.76 0.64 36 1008.1
20260507213203 20 179 0.0 8.0 0.00 0.76 0.64 37 1008.1
20260507212704 20 129 0.0 3.2 0.00 0.76 0.64 39 1008.1
20260507212203 20 103 1.6 16.1 0.00 0.76 0.64 39 1007.8
20260507211204 20 65 1.6 8.0 0.00 0.76 0.64 40 1007.9
20260507210203 19 86 3.2 8.0 0.00 0.76 0.64 35 1007.8
20260507205703 19 216 1.6 11.3 0.00 0.76 0.64 37 1007.8
20260507204703 19 213 1.6 8.0 0.00 0.76 0.64 36 1007.8
20260507204204 19 178 1.6 16.1 0.00 0.76 0.64 39 1007.8
20260507203704 20 147 0.0 0.0 0.00 0.76 0.64 38 1007.8
20260507202203 20 179 3.2 11.3 0.00 0.76 0.64 35 1008.0
20260507201704 20 337 3.2 20.9 0.00 0.76 0.64 38 1007.8
20260507201203 20 192 4.8 8.0 0.00 0.76 0.64 36 1007.8
20260507200703 19 200 3.2 11.3 0.00 0.76 0.64 37 1007.8
20260507195703 19 162 1.6 11.3 0.00 0.76 0.64 38 1008.1
20260507195204 19 45 1.6 16.1 0.00 0.76 0.64 39 1008.1
20260507194704 19 123 1.6 8.0 0.00 0.76 0.64 42 1007.9
20260507194203 19 34 3.2 16.1 0.00 0.76 0.64 38 1008.5
20260507193203 19 187 1.6 11.3 0.00 0.76 0.64 39 1008.5
20260507192203 18 210 4.8 20.9 0.00 0.76 0.64 39 1008.5
20260507191703 18 212 1.6 11.3 0.00 0.76 0.64 41 1008.8
20260507191204 18 36 1.6 11.3 0.00 0.76 0.64 41 1008.8
20260507190704 18 90 1.6 11.3 0.00 0.76 0.64 43 1009.1
20260507190203 18 242 1.6 11.3 0.00 0.76 0.64 39 1008.8
20260507185704 18 202 1.6 8.0 0.00 0.76 0.64 40 1008.7
20260507185203 18 314 3.2 11.3 0.00 0.76 0.64 40 1008.8
20260507184704 18 209 3.2 16.1 0.00 0.76 0.64 40 1008.8
20260507184204 18 44 4.8 16.1 0.00 0.76 0.64 41 1009.1
20260507183704 18 188 4.8 11.3 0.00 0.76 0.64 42 1009.1
20260507183204 18 47 8.0 16.1 0.00 0.76 0.64 43 1009.1
20260507182703 18 355 3.2 11.3 0.00 0.76 0.64 41 1009.1
20260507182203 18 108 1.6 8.0 0.00 0.76 0.64 42 1009.2
20260507181703 18 63 4.8 11.3 0.00 0.76 0.64 39 1009.4
20260507181204 17 219 1.6 11.3 0.00 0.76 0.64 41 1009.5
20260507180703 17 188 6.4 16.1 0.00 0.76 0.64 41 1009.4
20260507180203 17 277 3.2 20.9 0.00 0.76 0.64 44 1009.5
20260507175703 17 70 3.2 20.9 0.00 0.76 0.64 44 1009.5
20260507174704 17 31 6.4 20.9 0.00 0.76 0.64 42 1009.5
20260507174203 17 69 3.2 16.1 0.00 0.76 0.64 42 1009.8
20260507173704 17 327 3.2 8.0 0.00 0.76 0.64 46 1009.9
20260507173204 17 3 4.8 20.9 0.00 0.76 0.64 45 1009.8
20260507172703 17 152 3.2 24.1 0.00 0.76 0.64 47 1009.9
20260507172203 17 54 8.0 20.9 0.00 0.76 0.64 44 1010.2
20260507171703 17 293 1.6 8.0 0.00 0.76 0.64 47 1010.2
20260507171203 17 84 4.8 16.1 0.00 0.76 0.64 46 1010.2
20260507170704 17 201 4.8 20.9 0.00 0.76 0.64 46 1010.2
20260507170204 16 169 0.0 8.0 0.00 0.76 0.64 45 1010.2
20260507165703 16 166 0.0 16.1 0.00 0.76 0.64 45 1010.2
20260507165203 16 39 12.9 16.1 0.00 0.76 0.64 49 1010.2
20260507164704 16 39 12.9 16.1 0.00 0.76 0.64 49 1010.2
20260507164203 16 73 1.6 8.0 0.00 0.76 0.64 48 1010.2
20260507163703 16 70 1.6 3.2 0.00 0.76 0.64 49 1010.8
20260507163204 16 91 3.2 11.3 0.00 0.76 0.64 52 1010.5
20260507162704 16 19 8.0 11.3 0.00 0.79 0.64 50 1010.8
20260507162203 16 93 1.6 11.3 0.00 0.79 0.64 52 1010.5
20260507161703 16 196 4.8 16.1 0.00 0.79 0.64 51 1010.5
20260507161204 15 10 3.2 8.0 0.00 0.79 0.64 55 1010.8
20260507160204 15 341 3.2 11.3 0.00 0.79 0.64 51 1011.2
20260507155703 15 188 0.0 3.2 0.00 0.79 0.64 53 1011.1
20260507155203 15 44 0.0 3.2 0.00 0.79 0.64 54 1011.2
20260507154204 15 338 8.0 16.1 0.00 0.79 0.64 54 1011.2
20260507153703 15 130 1.6 8.0 0.00 0.79 0.64 61 1011.2
20260507153203 15 77 0.0 3.2 0.00 0.79 0.64 60 1011.5
20260507152203 15 347 4.8 16.1 0.00 0.79 0.64 58 1011.9
20260507151203 14 155 1.6 8.0 0.00 0.79 0.64 62 1011.9
20260507150703 14 35 8.0 20.9 0.00 0.79 0.64 61 1011.5
20260507150204 14 69 4.8 20.9 0.00 0.79 0.64 62 1011.8
20260507145704 13 112 0.0 8.0 0.00 0.79 0.64 64 1011.5
20260507144704 13 66 1.6 8.0 0.00 0.79 0.64 65 1011.9
20260507144203 13 42 8.0 8.0 0.00 0.79 0.64 70 1011.9
20260507143704 13 42 8.0 8.0 0.00 0.79 0.64 70 1011.9
20260507143204 13 41 8.0 11.3 0.00 0.79 0.64 70 1011.9
20260507142203 13 201 1.6 8.0 0.00 0.79 0.64 70 1011.9
20260507141703 13 47 3.2 11.3 0.00 0.79 0.64 75 1011.9
20260507141203 12 229 4.8 8.0 0.00 0.79 0.64 74 1012.2
20260507140703 12 223 3.2 11.3 0.00 0.79 0.64 75 1012.2
20260507140203 12 130 0.0 8.0 0.00 0.79 0.64 78 1011.9
20260507135704 12 127 0.0 0.0 0.00 0.79 0.64 80 1011.9
20260507135204 12 135 1.6 8.0 0.00 0.79 0.64 80 1011.9
20260507134704 12 182 1.6 8.0 0.00 0.79 0.64 81 1011.9
20260507134203 12 359 3.2 11.3 0.00 0.79 0.64 79 1012.2
20260507133703 12 182 0.0 8.0 0.00 0.79 0.64 82 1011.9
20260507133204 11 177 0.0 0.0 0.00 0.79 0.64 83 1011.9
20260507132704 11 170 0.0 0.0 0.00 0.79 0.64 82 1011.9
20260507132203 11 133 0.0 3.2 0.00 0.79 0.64 83 1011.9
20260507131704 11 165 0.0 8.0 0.00 0.79 0.64 88 1011.9
20260507131203 11 221 0.0 8.0 0.00 0.79 0.64 89 1011.9
20260507130703 10 28 0.0 0.0 0.00 0.79 0.64 89 1011.9
20260507130204 10 102 0.0 0.0 0.00 0.79 0.64 92 1012.2
20260507125703 10 102 0.0 0.0 0.00 0.79 0.64 92 1012.2
20260507124704 10 99 0.0 3.2 0.00 0.79 0.64 93 1011.9
20260507124204 10 97 0.0 0.0 0.00 0.79 0.64 92 1012.2
20260507123703 10 120 0.0 0.0 0.00 0.79 0.64 92 1011.9
20260507123203 10 111 0.0 3.2 0.00 0.79 0.64 93 1011.9
20260507122204 10 322 1.6 3.2 0.00 0.79 0.64 94 1011.9
20260507121703 10 322 1.6 8.0 0.00 0.79 0.64 94 1011.9
20260507121204 10 127 0.0 0.0 0.00 0.79 0.64 95 1011.9
20260507120704 10 179 0.0 3.2 0.00 0.79 0.64 95 1011.9
20260507120204 10 148 0.0 0.0 0.00 0.79 0.64 96 1011.9
20260507115703 10 125 0.0 8.0 0.00 0.79 0.64 96 1011.9
20260507115204 10 186 0.0 0.0 0.00 0.79 0.64 97 1011.9
20260507114703 10 186 0.0 0.0 0.00 0.79 0.64 97 1011.9
20260507114203 10 111 0.0 0.0 0.00 0.79 0.64 98 1011.9
20260507113204 10 141 0.0 0.0 0.00 0.79 0.64 98 1011.5
20260507112704 10 152 0.0 0.0 0.00 0.79 0.64 98 1011.5
20260507112204 9 157 0.0 0.0 0.00 0.79 0.64 98 1011.9
20260507111704 9 154 0.0 0.0 0.00 0.79 0.64 98 1011.5
20260507111204 9 137 0.0 0.0 0.00 0.79 0.64 98 1011.2
20260507110203 9 89 0.0 0.0 0.00 0.79 0.64 98 1011.0
20260507105204 9 142 0.0 0.0 0.00 0.79 0.64 98 1011.2
20260507104703 9 172 0.0 0.0 0.00 0.79 0.64 98 1011.2
20260507104204 9 162 0.0 0.0 0.00 0.79 0.64 98 1011.2
20260507102704 9 142 0.0 0.0 0.00 0.79 0.64 98 1010.5
20260507101703 9 143 0.0 0.0 0.00 0.79 0.64 98 1010.8
20260507101203 9 143 0.0 0.0 0.00 0.79 0.64 98 1010.8
20260507100703 9 143 0.0 0.0 0.00 0.79 0.64 98 1010.8
20260507100204 9 143 0.0 0.0 0.00 0.79 0.64 98 1010.5
20260507095204 9 139 0.0 0.0 0.00 0.79 0.64 98 1010.8
20260507094703 9 160 0.0 0.0 0.00 0.79 0.64 98 1010.5
20260507094203 9 169 0.0 0.0 0.00 0.79 0.64 98 1010.5
20260507093704 9 153 0.0 0.0 0.00 0.79 0.64 98 1010.5
20260507093203 9 142 0.0 0.0 0.00 0.79 0.64 98 1010.8
20260507092704 9 122 0.0 0.0 0.00 0.79 0.64 98 1010.5
20260507091203 9 149 0.0 0.0 0.00 0.79 0.64 98 1010.2
20260507090704 9 149 0.0 0.0 0.00 0.79 0.64 98 1010.2
20260507085204 9 49 1.6 8.0 0.00 0.79 0.64 98 1010.2
20260507084703 9 116 0.0 11.3 0.00 0.79 0.64 98 1010.2
20260507083703 9 75 0.0 0.0 0.00 0.79 0.64 98 1010.2
20260507083203 9 95 0.0 0.0 0.00 0.79 0.64 98 1010.2
20260507082704 9 82 0.0 0.0 0.00 0.79 0.64 98 1010.2
20260507082205 9 114 0.0 8.0 0.00 0.79 0.64 98 1010.2
20260507081704 10 103 0.0 0.0 0.00 0.79 0.64 98 1010.8
20260507081204 10 117 0.0 3.2 0.00 0.79 0.64 98 1010.8
20260507075703 10 95 1.6 8.0 0.00 0.79 0.64 97 1010.8
20260507075203 10 171 0.0 8.0 0.00 0.79 0.64 97 1011.2
20260507074703 10 169 0.0 11.3 0.00 0.79 0.64 97 1010.8
20260507074204 10 115 1.6 8.0 0.00 0.79 0.64 97 1010.5
20260507073703 10 194 0.0 3.2 0.03 0.79 0.64 97 1010.5
20260507072703 10 53 0.0 8.0 0.08 0.79 0.64 97 1010.5
20260507072202 10 151 1.6 8.0 0.10 0.79 0.64 97 1010.5
20260507071202 10 54 1.6 8.0 0.18 0.79 0.64 97 1010.5
20260507070702 10 131 0.0 11.3 0.20 0.79 0.64 97 1010.5
20260507070203 10 20 1.6 11.3 0.25 0.79 0.64 97 1010.2
20260507065703 10 50 0.0 11.3 0.25 0.79 0.64 97 1010.5
20260507064702 10 152 0.0 0.0 0.41 0.79 0.64 97 1010.5
20260507064202 10 168 0.0 3.2 0.53 0.79 0.64 97 1010.5
20260507062703 11 178 0.0 11.3 0.56 0.71 0.56 96 1010.8
20260507061702 11 126 0.0 3.2 0.51 0.66 0.51 96 1010.2
20260507061202 11 142 0.0 0.0 0.46 0.61 0.46 95 1010.5
20260507060702 11 82 0.0 11.3 0.43 0.58 0.43 95 1010.6
20260507060202 12 133 0.0 11.3 0.38 0.53 0.38 95 1010.2
20260507055202 12 118 0.0 3.2 0.36 0.51 0.36 93 1010.2
20260507054702 12 104 1.6 8.0 0.23 0.38 0.23 91 1010.5
20260507054202 12 187 1.6 8.0 0.10 0.25 0.10 91 1010.9
20260507053702 12 139 0.0 0.0 0.00 0.15 0.00 92 1009.1
20260507053203 12 139 0.0 3.2 0.00 0.15 0.00 92 1009.1
20260507052702 12 138 0.0 0.0 0.00 0.15 0.00 90 1009.1
20260507052202 12 150 1.6 8.0 0.00 0.15 0.00 91 1009.8
20260507051702 12 122 0.0 8.0 0.00 0.15 0.00 92 1009.8
20260507051203 12 125 0.0 3.2 0.00 0.15 0.00 92 1009.8
20260507050703 12 134 0.0 3.2 0.00 0.15 0.00 92 1009.7
20260507050203 13 131 0.0 0.0 0.00 0.15 0.00 91 1009.1
20260507045703 13 131 0.0 3.2 0.00 0.15 0.00 91 1009.1
20260507045202 13 126 0.0 8.0 0.00 0.15 0.00 91 1009.3
20260507044702 13 64 0.0 0.0 0.00 0.15 0.00 91 1009.5